Temperature
17 17 17 18 17 17 17 17 17 16 16 16 16 16 15 15 15 15 15 14 14 14 14 14 13 13 13 13 14 14 14 14 14 15 15 15 16 16 16 15 15 15 15
17 17 17 18 17 17 17 17 17 16 16 16 16 16 15 15 15 15 15 14 14 14 14 13 13 13 13 13 13 13 13 14 14 14 15 15 15 15 15 15 15 15 14
17 17 17 17 17 17 17 17 17 17 16 16 16 15 15 15 15 15 14 14 14 14 14 13 13 13 13 13 13 13 13 13 13 14 14 14 15 15 15 15 15 15 14
17 17 17 17 17 17 17 17 17 17 16 16 16 15 15 15 15 15 14 14 14 14 14 13 13 13 13 13 13 13 13 13 13 13 13 14 14 15 15 15 15 15 14
17 17 16 17 17 17 17 17 17 17 16 16 16 16 15 15 15 15 14 14 14 14 14 14 13 13 13 13 13 13 13 13 13 13 13 13 13 14 14 14 14 14 14
16 16 16 16 16 16 16 16 16 16 16 16 16 16 15 15 15 15 14 14 14 14 14 14 14 13 13 13 13 13 12 12 12 12 13 13 13 13 13 14 14 14 14
15 15 15 15 15 15 16 16 16 16 16 16 15 15 15 15 15 15 14 14 14 14 14 14 14 14 13 13 13 13 13 12 12 12 12 12 12 12 13 13 13 13 14
14 14 14 14 14 15 15 15 15 15 15 15 15 14 14 14 14 14 14 14 14 14 14 14 14 14 14 14 13 13 13 13 12 12 12 12 12 12 12 12 12 13 13
13 13 13 13 13 14 14 14 13 13 13 13 13 13 13 13 14 14 14 14 14 14 14 14 14 14 14 14 14 14 13 13 13 12 12 12 12 12 12 12 12 12 13
12 12 12 12 12 12 12 12 12 12 12 12 12 12 12 13 13 13 13 14 14 14 14 14 14 14 14 14 14 14 14 13 13 13 12 12 12 12 12 12 12 12 12
11 11 11 11 11 11 11 11 11 11 11 11 11 11 12 12 12 12 13 13 13 13 13 13 13 14 14 14 14 14 13 13 13 13 13 13 13 12 12 12 12 12 12
12 11 11 11 11 11 11 11 11 11 11 11 11 11 11 12 12 12 12 12 12 13 13 13 13 13 13 13 13 13 13 13 13 13 13 13 13 12 12 12 12 12 12
12 11 11 11 11 11 11 11 11 11 11 11 11 11 11 11 11 11 11 12 12 12 12 12 12 12 12 13 13 13 13 13 13 13 13 12 12 12 12 12 12 11 11
12 12 11 11 11 11 11 11 11 11 11 11 11 11 11 11 11 11 11 11 11 11 11 11 11 12 12 12 12 12 12 12 12 12 12 12 12 11 11 11 11 11 11
12 12 11 11 11 11 11 11 11 10 10 10 10 10 10 10 10 10 10 10 11 11 11 11 11 11 11 11 12 12 12 12 11 11 11 11 11 11 11 11 11 10 10
12 12 12 11 11 11 11 11 10 10 10 10 10 10 10 10 10 10 10 10 10 10 10 10 10 11 11 11 11 11 11 11 11 11 11 11 10 10 10 10 10 10 10
12 12 12 11 11 11 11 10 10 10 10 9 10 10 10 10 10 10 10 10 10 10 10 10 10 10 10 10 10 10 10 10 10 10 10 10 10 10 10 10 10 10 10
13 12 12 11 11 11 11 11 10 10 10 10 10 10 10 10 10 10 10 10 10 10 9 9 9 9 9 9 9 9 9 9 9 9 9 9 9 9 9 9 9 9 9
13 12 12 11 11 11 11 11 10 10 10 10 10 10 10 10 10 9 9 9 9 9 9 9 9 9 9 9 9 9 9 9 9 9 9 9 9 9 9 9 8 8 8
13 12 12 11 11 11 11 11 10 10 10 10 10 10 10 10 10 9 9 9 8 8 8 8 8 8 8 8 8 8 8 8 8 8 8 8 8 8 8 8 8 8 8
13 12 12 11 11 11 11 11 10 10 10 10 10 9 9 9 9 9 8 8 8 8 8 8 8 8 8 8 8 8 8 8 8 8 8 8 8 8 7 7 7 7 7
13 12 11 11 11 11 11 11 10 10 10 10 9 9 9 9 9 8 8 8 7 7 7 7 7 8 8 8 8 8 8 8 8 7 7 7 7 7 7 7 7 7 7
13 12 12 11 11 11 11 10 10 10 10 10 9 9 9 8 8 8 8 7 7 7 7 7 7 7 7 8 8 8 8 7 7 7 7 7 6 6 6 6 6 6 6
13 12 12 11 11 11 11 11 10 10 10 9 9 9 8 8 8 8 8 7 7 7 7 7 7 7 7 8 8 7 7 7 7 7 6 6 6 5 5 5 5 5 5
13 12 12 11 11 11 11 11 10 10 10 9 9 8 8 8 8 8 7 8 8 8 8 8 8 8 8 8 8 8 7 7 7 7 6 6 5 5 5 5 5 5 5
13 13 12 12 11 11 11 11 10 10 10 9 9 8 8 8 8 8 8 8 8 8 8 8 8 8 8 8 8 7 7 7 7 6 6 5 5 5 5 5 4 4 4
Wind_Speed
3 3 4 3 4 4 4 4 4 4 4 5 5 4 4 3 3 3 2 2 2 3 3 5 6 6 7 7 7 7 7 7 7 4 2 3 5 6 7 11 12 12 12
4 4 4 3 4 4 3 3 3 3 4 4 4 4 4 4 4 4 3 3 3 2 3 3 4 5 7 7 7 9 8 8 8 7 3 3 4 4 5 6 8 10 11
5 5 4 3 3 3 2 2 2 2 3 3 4 4 4 4 4 4 4 4 3 3 3 3 4 4 5 5 7 8 8 8 7 5 4 3 2 2 3 3 4 5 8
4 4 3 3 2 1 1 1 1 2 3 4 4 5 5 4 5 5 5 4 4 3 3 3 3 3 4 4 5 6 7 8 8 6 4 3 3 2 3 3 3 5 6
5 5 4 3 3 3 3 2 1 2 2 3 4 5 5 4 5 6 6 6 5 4 3 3 3 4 4 4 4 4 5 6 6 6 5 4 4 3 3 3 4 2 4
9 8 7 6 6 6 5 4 4 3 3 2 4 4 5 5 6 9 8 6 6 5 4 3 3 4 4 4 5 5 6 5 5 5 4 5 5 4 4 3 3 2 3
10 9 8 8 7 7 6 6 5 5 3 3 3 2 4 5 7 7 9 6 6 6 5 4 3 3 4 2 3 3 5 7 7 4 4 4 5 5 6 5 4 3 3
9 9 9 8 8 7 7 7 6 4 4 4 4 4 3 4 6 5 7 6 5 5 5 5 5 5 4 4 3 3 3 4 5 5 4 4 4 5 5 4 4 3 3
9 8 8 8 8 8 8 7 6 5 6 5 4 6 5 6 8 5 2 3 4 4 4 4 5 5 7 7 5 5 5 5 6 8 7 6 7 8 6 4 3 2 3
7 7 7 7 7 7 7 6 5 5 6 6 8 8 8 8 11 9 3 2 2 2 2 3 5 6 7 7 6 6 7 5 4 4 5 6 6 7 10 7 5 5 3
5 6 7 7 7 7 7 6 6 7 7 7 7 7 8 10 12 13 8 2 0 1 1 2 3 4 4 5 7 6 7 4 3 4 3 2 2 3 4 5 5 6 5
4 5 7 7 7 6 7 7 7 7 8 8 7 7 7 8 10 12 13 8 3 1 2 2 3 4 3 1 2 4 5 4 2 2 2 1 1 1 1 1 2 3 3
3 4 5 6 6 6 7 7 6 7 7 7 7 7 7 7 8 13 13 11 8 3 2 3 3 4 5 4 4 3 3 3 3 2 2 1 0 1 2 2 2 2 1
2 3 3 4 5 6 6 6 6 7 7 7 7 7 7 6 7 8 7 6 7 5 3 5 6 7 6 5 5 5 3 3 2 2 2 1 1 2 2 1 1 1 1
1 2 3 3 3 3 4 4 4 4 5 5 5 5 6 7 8 11 7 5 4 3 3 3 3 3 4 3 4 4 4 3 3 2 2 2 1 1 1 1 1 1 0
0 1 2 2 2 2 2 2 2 2 4 6 6 6 4 6 9 9 10 9 8 6 4 4 4 4 4 3 3 3 4 4 3 3 2 2 1 1 1 0 0 0 1
2 1 1 2 2 2 1 2 3 3 4 5 9 10 9 10 11 10 10 11 11 9 7 6 6 5 5 5 5 4 4 4 3 3 3 3 2 1 1 0 1 1 2
3 2 2 1 2 2 2 2 3 3 4 4 6 10 12 13 14 14 12 9 9 9 7 7 7 7 6 6 6 5 5 5 5 5 4 4 3 2 2 2 2 2 2
4 2 2 2 2 3 3 3 4 4 4 4 4 6 10 10 12 15 12 8 8 7 7 7 7 7 6 6 6 6 6 5 5 5 4 4 4 3 3 3 2 3 2
3 4 4 3 3 3 3 3 4 4 4 4 5 5 5 6 7 8 8 7 7 6 6 7 6 6 6 6 6 5 5 5 6 5 5 4 4 3 3 3 3 3 3
4 3 5 3 3 2 3 3 3 3 3 4 4 5 6 5 6 6 6 6 6 6 6 6 6 6 6 6 6 6 6 5 5 5 5 5 4 4 4 4 4 3 3
5 4 3 3 2 2 3 3 3 3 3 3 3 4 7 5 5 5 5 6 6 6 5 5 5 5 5 6 5 5 5 5 5 5 5 5 4 4 4 4 4 4 4
5 5 4 3 2 3 3 3 3 2 2 2 2 3 3 4 4 4 5 5 5 5 5 5 5 5 6 7 6 5 4 4 5 5 5 5 5 4 4 4 5 4 4
5 5 5 4 3 3 3 3 3 3 2 2 2 2 2 3 3 4 4 4 4 4 6 6 6 6 7 7 7 7 7 8 7 5 4 4 4 4 4 3 4 4 4
5 5 5 4 4 4 3 3 3 3 3 2 3 2 2 3 3 3 3 4 4 4 6 7 7 7 8 8 9 9 10 10 9 7 5 3 4 4 4 4 4 4 4
4 5 4 4 4 4 4 4 4 3 3 3 3 3 3 3 3 3 3 3 3 3 4 5 7 8 9 9 10 10 10 10 10 10 8 5 5 5 5 4 5 5 5
Wind_Direction
166 162 158 161 166 161 157 161 160 158 160 163 161 156 157 158 157 158 175 179 200 223 228 223 227 217 218 216 210 206 206 199 221 234 223 200 187 200 196 202 210 213 221
169 156 154 138 125 120 128 143 147 157 170 173 168 169 175 176 175 178 188 186 195 218 235 238 243 232 225 220 214 214 211 207 210 220 214 199 202 197 186 190 202 214 220
162 147 129 114 108 111 113 116 132 159 183 184 185 194 199 197 196 201 200 200 204 216 223 229 243 241 242 233 224 219 214 211 205 201 198 181 172 152 150 188 200 209 220
141 133 129 116 111 115 105 118 158 189 206 210 213 216 216 212 209 207 205 208 211 216 217 223 236 239 252 249 236 226 216 210 203 198 189 172 159 148 148 169 198 210 223
78 67 50 38 40 31 24 5 326 265 244 229 229 230 225 218 219 209 205 207 208 214 218 224 238 251 263 253 237 220 212 213 204 202 196 177 169 161 183 178 196 196 226
60 51 38 29 27 18 5 358 350 332 311 267 239 236 236 237 235 222 205 202 204 210 222 233 250 263 279 287 258 229 210 209 207 203 201 197 189 175 160 166 163 159 247
51 43 34 29 27 14 6 9 3 350 342 321 302 268 259 266 267 251 220 200 203 209 215 225 246 250 254 260 270 258 240 230 211 193 197 195 180 179 167 168 178 186 215
41 35 28 26 22 15 17 16 7 0 358 353 349 339 318 318 315 280 234 204 205 212 213 217 233 255 250 232 229 241 247 238 219 210 200 195 183 172 171 172 179 204 228
31 25 18 17 18 18 18 11 8 10 16 14 10 13 13 358 359 342 237 182 202 218 220 221 229 247 258 241 219 234 251 257 249 236 221 209 201 196 183 164 179 205 246
14 11 11 16 22 21 18 15 12 21 27 33 38 33 30 17 15 19 50 136 188 228 246 254 251 255 262 244 213 218 240 251 236 239 237 236 227 224 214 207 203 214 224
6 20 22 22 27 27 29 28 27 33 39 37 37 32 28 21 18 24 31 47 29 258 274 288 293 299 289 252 213 213 231 225 207 215 226 230 221 218 217 213 209 210 213
31 37 30 27 29 31 37 34 31 33 37 29 23 18 15 11 14 16 20 21 27 13 305 307 316 335 354 358 208 220 219 194 157 156 170 190 192 199 193 182 199 213 223
45 37 29 31 34 33 38 34 31 32 34 26 21 14 3 1 4 11 12 14 16 16 345 335 2 33 46 43 52 89 120 130 136 148 170 177 138 108 92 75 56 53 23
52 25 18 24 31 36 38 37 37 30 26 22 18 11 2 359 1 358 355 358 6 18 24 42 50 54 55 53 51 50 60 91 114 126 122 101 85 87 83 81 83 56 23
61 17 13 18 34 47 47 39 33 32 20 13 7 359 357 356 345 344 350 351 351 2 22 36 39 39 39 42 47 46 46 56 68 74 89 90 85 83 78 91 112 114 81
91 4 7 11 31 59 57 37 24 7 5 10 6 360 338 335 341 1 14 22 28 38 47 47 46 48 46 45 53 48 43 44 45 58 68 68 71 66 49 60 130 249 278
161 104 37 32 44 58 68 55 27 358 360 15 16 17 20 17 21 23 28 41 42 45 52 47 44 47 48 50 49 49 43 33 40 53 56 47 41 38 35 349 309 291 290
148 123 110 69 69 75 82 80 63 42 17 357 360 17 29 37 37 35 36 48 45 44 46 46 44 44 45 47 45 45 43 38 39 41 40 34 28 24 14 356 336 313 303
149 135 105 90 87 87 86 80 68 57 45 20 8 8 15 31 39 38 42 52 53 48 45 46 44 44 43 43 43 43 46 44 38 37 34 27 20 18 9 353 338 323 310
153 154 130 110 97 93 88 85 74 63 51 39 31 12 6 35 43 36 40 45 51 50 47 47 44 43 41 40 39 38 39 36 31 29 22 16 9 5 354 343 333 322 309
144 139 128 107 107 113 111 106 99 85 67 53 36 31 54 59 55 48 44 44 44 45 44 44 41 37 34 33 32 32 32 26 20 12 6 2 358 354 348 340 333 330 325
143 140 135 134 129 127 127 126 119 106 87 73 45 43 56 61 57 52 49 46 43 42 39 45 47 40 32 26 23 22 21 16 7 358 353 351 351 350 350 352 352 350 349
147 144 139 136 136 138 129 132 134 131 118 103 89 71 63 62 59 57 55 51 46 40 35 40 44 35 26 24 22 16 8 355 342 338 342 345 350 353 357 359 357 355 357
157 156 153 151 148 151 157 161 160 157 152 139 122 107 95 84 77 73 67 63 57 44 38 38 38 30 23 17 11 6 358 347 337 333 337 346 354 358 3 6 1 358 360
166 164 164 167 169 170 171 171 172 172 168 162 151 139 127 111 98 89 83 77 69 53 41 35 29 22 16 12 9 6 8 15 18 14 12 16 17 14 14 13 11 8 8
179 176 173 172 175 176 177 181 184 180 177 173 166 160 149 133 120 109 99 91 78 56 40 31 25 23 18 14 11 15 24 30 34 39 44 42 38 31 29 30 26 25 20
Height
1494 1497 1499 1500 1502 1503 1503 1504 1504 1505 1505 1506 1506 1506 1506 1506 1506 1506 1506 1505 1505 1505 1505 1506 1506 1507 1508 1510 1512 1514 1517 1519 1521 1523 1526 1528 1530 1532 1534 1536 1537 1538 1539
1494 1496 1498 1499 1500 1501 1502 1502 1503 1503 1504 1504 1505 1505 1505 1505 1505 1505 1505 1504 1504 1503 1503 1503 1503 1503 1504 1505 1506 1507 1510 1513 1515 1517 1520 1523 1525 1527 1529 1531 1533 1535 1536
1493 1495 1496 1497 1498 1499 1500 1500 1501 1502 1502 1503 1504 1504 1504 1504 1504 1504 1504 1503 1502 1502 1501 1501 1500 1500 1500 1501 1501 1502 1504 1507 1509 1512 1514 1517 1519 1522 1524 1526 1528 1530 1532
1491 1492 1493 1494 1496 1496 1497 1498 1499 1500 1501 1501 1502 1502 1503 1503 1503 1503 1502 1502 1501 1501 1500 1499 1498 1498 1497 1497 1498 1498 1500 1502 1503 1506 1508 1510 1513 1516 1519 1521 1523 1526 1527
1489 1490 1491 1492 1493 1494 1495 1496 1497 1498 1498 1499 1500 1500 1500 1501 1501 1501 1501 1500 1500 1500 1499 1498 1497 1497 1496 1495 1495 1495 1496 1497 1499 1501 1503 1505 1507 1510 1513 1516 1518 1521 1522
1489 1490 1491 1491 1491 1492 1493 1494 1495 1495 1496 1496 1496 1497 1497 1498 1499 1499 1499 1498 1498 1498 1498 1498 1497 1496 1495 1494 1494 1494 1494 1495 1495 1497 1498 1499 1501 1505 1508 1511 1514 1516 1518
1491 1491 1491 1491 1491 1491 1491 1492 1492 1492 1492 1493 1493 1493 1494 1495 1495 1495 1495 1496 1496 1496 1496 1496 1496 1496 1495 1494 1493 1493 1493 1493 1494 1495 1495 1496 1498 1500 1503 1506 1509 1511 1513
1494 1493 1492 1491 1490 1490 1490 1490 1489 1489 1489 1489 1489 1489 1490 1490 1491 1491 1492 1492 1493 1493 1494 1494 1494 1494 1494 1493 1493 1493 1493 1492 1493 1493 1494 1494 1496 1497 1499 1501 1503 1506 1508
1496 1494 1493 1492 1491 1490 1489 1488 1488 1488 1487 1487 1486 1486 1486 1487 1487 1488 1488 1489 1490 1490 1491 1491 1492 1492 1492 1492 1492 1492 1492 1492 1492 1492 1493 1494 1495 1496 1497 1499 1501 1503 1503
1499 1498 1496 1494 1493 1492 1491 1490 1489 1488 1487 1487 1486 1485 1485 1484 1484 1484 1485 1485 1486 1487 1488 1488 1489 1490 1490 1490 1490 1491 1491 1491 1491 1491 1492 1492 1493 1494 1495 1497 1498 1500 1500
1504 1502 1500 1498 1496 1495 1494 1493 1492 1491 1489 1488 1487 1486 1485 1484 1483 1482 1482 1483 1483 1483 1484 1485 1486 1486 1487 1488 1488 1489 1489 1489 1489 1490 1490 1491 1492 1492 1493 1494 1495 1496 1497
1507 1505 1503 1501 1500 1499 1498 1496 1495 1493 1492 1490 1489 1487 1486 1484 1483 1482 1481 1480 1480 1480 1481 1482 1482 1483 1484 1485 1486 1486 1487 1488 1488 1488 1489 1490 1490 1491 1492 1492 1493 1493 1494
1510 1508 1506 1505 1503 1502 1500 1499 1497 1495 1493 1491 1490 1488 1486 1485 1483 1482 1480 1479 1479 1479 1479 1479 1480 1481 1482 1483 1484 1484 1485 1486 1486 1487 1487 1488 1489 1489 1490 1490 1491 1491 1491
1512 1511 1509 1507 1506 1504 1502 1500 1498 1496 1494 1492 1490 1489 1487 1485 1484 1482 1480 1479 1478 1478 1478 1478 1478 1479 1480 1481 1482 1483 1483 1484 1485 1485 1486 1487 1487 1488 1488 1489 1489 1489 1490
1514 1512 1511 1509 1507 1506 1504 1502 1500 1498 1496 1494 1492 1490 1488 1486 1485 1483 1481 1480 1479 1478 1478 1477 1478 1478 1479 1480 1481 1482 1482 1483 1484 1484 1485 1485 1486 1487 1487 1487 1487 1487 1487
1515 1513 1512 1510 1508 1507 1505 1503 1501 1500 1498 1496 1494 1493 1491 1489 1487 1485 1483 1482 1480 1480 1479 1478 1478 1478 1479 1480 1481 1482 1482 1483 1483 1484 1484 1485 1485 1485 1486 1486 1486 1485 1485
1516 1514 1513 1511 1510 1508 1506 1505 1503 1502 1500 1499 1497 1495 1494 1492 1490 1488 1486 1484 1483 1482 1481 1480 1480 1480 1481 1481 1482 1483 1483 1483 1484 1484 1484 1485 1485 1485 1485 1484 1484 1484 1483
1516 1515 1513 1512 1511 1509 1508 1506 1505 1503 1502 1501 1500 1498 1497 1495 1493 1491 1489 1488 1486 1485 1484 1484 1483 1483 1483 1484 1484 1484 1484 1484 1484 1484 1484 1484 1484 1484 1483 1483 1482 1482 1481
1516 1515 1514 1513 1512 1511 1509 1508 1507 1506 1505 1504 1502 1501 1500 1498 1496 1494 1492 1491 1489 1489 1488 1487 1487 1486 1486 1486 1486 1485 1485 1485 1485 1484 1484 1484 1483 1483 1482 1481 1481 1480 1479
1515 1515 1514 1513 1513 1512 1511 1510 1509 1508 1507 1506 1505 1504 1502 1501 1499 1497 1495 1494 1493 1492 1491 1490 1490 1489 1488 1488 1487 1487 1486 1485 1485 1484 1483 1483 1482 1481 1480 1479 1478 1477 1476
1515 1515 1514 1514 1514 1513 1513 1512 1511 1510 1509 1508 1507 1506 1505 1503 1501 1499 1498 1496 1495 1494 1494 1493 1492 1491 1490 1489 1488 1487 1486 1485 1484 1483 1483 1482 1480 1479 1478 1477 1476 1475 1473
1515 1514 1514 1514 1514 1514 1514 1513 1513 1512 1511 1510 1509 1508 1507 1505 1503 1502 1500 1499 1497 1496 1495 1494 1493 1492 1491 1490 1488 1487 1486 1485 1484 1483 1481 1480 1479 1478 1476 1475 1474 1472 1471
1514 1514 1514 1514 1514 1514 1514 1514 1513 1513 1512 1512 1511 1509 1508 1507 1505 1503 1501 1500 1499 1498 1496 1495 1494 1493 1491 1490 1488 1487 1485 1484 1483 1481 1480 1479 1478 1476 1475 1473 1472 1470 1469
1514 1514 1514 1514 1514 1514 1514 1514 1514 1514 1513 1512 1511 1510 1509 1508 1506 1504 1503 1501 1500 1499 1497 1496 1495 1493 1492 1490 1488 1487 1485 1483 1482 1480 1479 1478 1476 1475 1473 1472 1471 1469 1468
1514 1514 1514 1514 1514 1514 1514 1514 1514 1514 1513 1513 1512 1511 1510 1508 1507 1505 1504 1502 1501 1499 1498 1497 1495 1494 1492 1491 1489 1487 1485 1484 1482 1480 1479 1477 1476 1474 1473 1471 1470 1468 1467
1514 1513 1513 1513 1513 1514 1514 1514 1514 1513 1513 1512 1511 1510 1509 1508 1507 1506 1504 1503 1502 1501 1499 1498 1497 1495 1494 1492 1490 1489 1487 1485 1483 1481 1479 1478 1476 1474 1473 1471 1470 1468 1467